Wind_Speed
7 7 7 7 7 7 7 8 8 9 9 9 9 9 9 9 8 8 9 9 10 10 10 10 11 12 13 14 15 15 16 16 16 17 17 17 17 17 17 18 19 19 20 21 22 23 24 25 26 28 28 29 29 29 29 29 29 29 29 28 27 27 27 27 27 28 28 29 31 33 35 37 37 39
7 7 7 7 7 8 8 8 8 8 9 9 9 9 9 8 8 9 10 10 11 11 11 12 13 14 15 15 16 16 17 17 17 17 17 17 17 18 18 19 20 21 22 22 23 24 25 26 27 28 29 30 32 32 32 31 30 29 29 28 27 27 27 27 27 28 28 29 31 33 35 36 37 38
6 7 7 7 7 8 8 8 8 8 8 8 8 8 9 9 9 9 10 11 11 11 12 12 14 15 15 16 17 17 18 18 17 17 17 18 19 20 21 21 22 23 24 25 25 26 27 28 29 30 30 31 32 34 34 32 31 30 29 28 27 27 28 28 28 28 28 29 30 33 34 35 36 37
6 7 7 7 8 8 8 8 8 8 8 8 8 8 9 9 10 10 10 11 11 12 13 14 15 16 16 17 17 17 18 19 19 19 19 20 21 22 23 24 25 25 26 27 27 28 29 30 31 31 31 31 32 34 34 33 32 31 29 28 28 28 29 29 29 29 29 29 31 32 33 34 35 36
7 7 7 7 7 8 8 7 6 6 7 7 8 8 8 9 10 11 12 12 13 14 15 15 16 17 17 18 18 18 18 19 20 20 21 22 23 24 25 26 26 27 27 28 29 30 31 32 33 33 33 32 33 34 34 32 31 31 31 30 29 29 30 30 30 29 29 30 31 31 32 33 34 35
9 8 8 8 7 7 7 7 7 6 6 6 7 8 8 9 10 11 12 13 14 15 16 16 17 17 18 18 18 19 19 20 21 22 22 23 24 25 26 26 27 28 28 29 30 31 32 33 34 34 34 33 33 34 33 31 31 31 31 31 31 31 31 31 31 30 29 30 30 29 30 32 33 34
10 9 9 8 7 7 7 6 6 6 7 7 7 7 8 8 9 10 11 12 13 14 15 16 17 17 18 19 19 20 20 21 21 23 23 24 24 25 26 27 28 28 29 30 31 32 33 34 34 35 35 34 34 34 32 30 30 31 31 32 32 33 33 33 32 31 29 29 28 27 28 30 32 33
10 10 9 7 6 6 7 7 6 5 6 7 7 8 8 9 9 9 10 11 11 12 14 15 16 17 19 21 21 21 22 22 22 23 25 24 24 25 26 27 28 29 30 31 31 32 33 34 34 35 36 36 35 34 31 27 28 30 32 33 33 34 34 34 34 32 30 27 25 25 27 29 31 32
8 9 8 5 4 4 6 7 6 6 6 6 7 8 9 10 10 10 11 12 12 12 13 15 16 17 18 20 21 22 22 23 24 25 26 25 24 25 26 27 28 29 31 31 32 33 33 34 35 36 36 36 36 34 29 26 27 30 32 34 34 34 34 35 35 32 29 25 23 24 26 28 29 31
7 7 5 4 3 3 4 4 4 5 6 6 7 8 9 10 11 12 13 13 13 13 14 15 16 16 17 18 20 22 23 23 24 27 28 28 27 27 27 27 29 31 32 33 33 33 34 35 36 37 37 37 37 36 31 27 27 29 31 34 35 35 35 35 35 33 27 22 21 22 25 27 28 30
6 5 4 3 2 2 0 1 1 2 4 5 6 8 9 10 12 13 14 15 16 15 15 16 17 18 19 18 19 21 23 23 24 28 30 30 31 32 30 29 31 32 33 34 34 35 35 36 37 38 39 38 38 37 33 30 29 30 32 35 36 37 36 36 36 33 27 21 19 21 23 25 27 28
6 5 5 4 3 2 2 1 1 2 3 4 5 8 9 11 13 14 16 17 18 19 18 18 18 20 21 21 22 23 24 25 26 30 32 31 32 35 34 33 33 34 35 35 35 35 36 37 38 39 40 39 38 38 36 33 32 33 35 37 38 38 38 38 37 34 27 20 18 20 22 24 26 27
7 6 5 3 2 1 0 1 2 4 5 6 7 9 10 11 14 16 18 19 21 21 21 21 21 22 22 23 25 27 27 28 29 31 33 33 33 35 36 35 35 36 37 36 35 35 36 37 38 39 40 40 40 39 38 36 36 37 37 38 40 39 39 38 39 36 28 21 18 20 22 24 25 26
8 6 4 2 1 2 3 5 6 7 8 9 10 12 13 14 16 18 19 21 22 23 23 23 24 25 23 23 26 28 29 31 32 33 34 34 34 36 36 35 34 36 38 38 35 34 35 37 38 39 40 42 43 42 40 39 38 39 39 39 40 41 41 39 39 37 30 23 19 20 22 23 24 24
8 6 4 3 3 4 6 7 9 10 12 13 14 15 16 18 19 21 22 23 24 25 24 24 25 26 25 25 27 29 30 33 34 35 36 36 35 36 36 35 34 35 38 39 36 34 34 36 39 39 40 43 45 44 43 41 40 41 41 41 41 42 43 41 39 38 33 25 20 20 21 22 23 23
9 7 5 4 4 5 8 10 11 13 15 16 17 18 19 20 22 23 24 25 26 27 27 26 26 27 27 28 29 31 33 35 36 37 38 38 37 36 36 34 33 34 38 39 38 36 34 35 38 39 40 43 46 46 45 44 43 43 43 43 42 43 44 42 39 38 36 29 22 20 21 22 22 22
9 8 7 6 6 8 10 12 14 16 18 20 21 21 21 22 23 25 26 27 29 30 30 30 29 29 31 31 31 33 36 37 37 38 40 41 40 38 37 36 36 36 38 40 40 38 35 35 37 37 39 43 47 48 47 46 45 45 45 45 44 43 44 44 41 39 37 32 25 21 21 21 21 21
11 10 9 7 7 10 12 14 16 19 21 23 24 24 24 24 25 26 27 28 31 33 34 34 32 32 35 36 36 38 41 42 41 41 43 44 44 42 40 40 39 38 39 40 42 40 37 38 39 37 37 42 46 49 49 48 47 47 46 47 46 45 45 45 43 41 38 34 28 23 20 21 21 20
12 12 11 9 9 12 14 16 19 21 23 25 26 27 27 27 28 29 30 31 33 35 37 38 37 36 38 41 41 43 46 47 46 46 47 47 46 44 43 43 42 41 42 44 45 42 39 41 43 39 38 43 45 48 51 50 49 49 48 47 47 46 45 45 44 42 38 35 30 24 21 20 20 20
15 14 13 13 13 14 16 19 21 23 26 27 28 28 29 29 30 31 32 34 36 37 39 40 40 40 42 44 46 47 49 50 50 50 49 48 47 46 46 47 46 46 48 50 51 49 46 46 49 46 45 47 48 50 52 51 50 50 49 48 48 46 45 45 43 41 38 34 30 25 21 20 20 19
17 17 16 16 17 17 19 21 24 26 28 30 30 30 30 30 31 32 35 37 37 38 40 41 42 44 44 46 48 49 52 53 54 54 52 49 49 51 52 54 54 54 53 52 55 58 56 54 56 55 55 57 56 55 55 55 53 51 48 47 47 47 46 45 42 40 38 36 31 25 21 20 20 19
19 18 18 19 19 20 22 24 26 29 31 31 32 33 32 31 31 33 36 37 38 40 42 42 44 46 46 47 49 49 52 54 55 55 53 51 53 56 57 58 61 60 54 51 54 58 58 57 58 59 60 62 60 59 61 61 58 55 50 47 47 47 47 45 41 39 39 38 33 26 21 20 21 20
20 19 19 20 22 23 25 27 29 31 33 34 35 36 35 32 30 33 37 40 42 44 44 44 45 46 45 47 50 51 52 54 54 55 55 53 55 58 58 59 62 58 50 49 54 58 58 58 61 62 62 62 60 60 61 60 58 57 54 50 47 45 45 44 41 39 39 39 36 28 21 20 21 20
21 20 21 23 25 26 28 29 32 34 35 36 38 40 39 34 32 36 41 43 44 44 43 43 44 44 45 46 48 48 49 50 50 52 53 53 55 57 58 60 61 57 51 53 61 65 63 62 64 65 64 62 61 59 57 56 55 55 56 55 51 45 42 41 40 37 37 39 39 30 21 20 21 21
21 22 23 26 28 29 30 32 34 35 37 39 40 44 45 39 35 37 41 41 41 42 41 42 43 43 44 45 43 43 43 43 45 48 48 50 53 55 57 59 61 59 56 58 65 68 64 59 59 61 62 60 59 58 56 54 52 50 53 56 55 48 42 39 37 36 36 39 39 32 23 20 21 21
24 25 27 29 31 32 33 34 35 36 38 40 42 46 49 44 37 37 40 41 41 43 44 45 45 44 44 45 44 43 42 43 45 47 47 47 48 50 53 56 58 58 55 56 60 62 59 54 53 55 57 56 56 56 55 53 52 49 50 54 54 50 44 38 35 34 35 38 38 32 24 21 22 22
27 28 30 32 33 35 35 35 36 37 39 42 43 47 51 48 42 41 43 43 45 46 47 48 48 46 47 48 48 48 47 48 50 50 47 46 45 47 49 51 53 54 52 53 57 58 57 54 52 52 54 54 54 54 53 53 53 49 48 50 51 51 48 40 35 35 35 36 38 34 26 22 22 22
30 31 33 34 35 36 37 37 38 39 40 43 45 47 50 50 47 45 46 48 50 51 51 50 50 49 49 51 51 51 51 52 53 51 48 46 46 47 48 47 49 50 50 51 54 56 56 55 53 52 52 52 53 53 52 53 54 51 48 48 48 49 50 44 39 38 36 35 38 37 29 23 22 22
33 34 35 37 37 38 38 39 40 41 43 45 47 49 50 51 50 50 51 52 54 55 54 52 51 51 51 52 53 53 52 52 52 49 46 45 46 48 48 48 49 48 47 47 50 53 55 56 55 54 53 52 52 53 53 54 55 54 50 48 47 48 49 49 46 43 38 36 39 39 31 23 22 22
35 36 37 38 38 39 41 42 43 44 46 47 49 50 51 52 53 54 55 56 57 57 57 57 56 55 55 55 56 55 54 52 49 46 43 44 45 46 47 48 48 47 45 44 47 50 53 55 56 56 54 51 51 51 52 53 56 56 53 50 49 48 48 48 49 47 40 35 38 39 31 23 22 22
37 38 39 40 41 42 43 45 46 47 49 50 50 51 53 54 55 56 57 58 59 59 60 61 60 60 60 60 59 57 55 51 46 42 42 44 45 45 47 48 48 46 44 44 45 48 52 54 54 55 54 52 51 51 52 54 56 56 54 52 52 51 47 46 49 49 42 36 38 38 32 24 22 23
40 40 42 43 44 45 46 47 49 50 51 51 52 53 54 55 56 57 58 59 60 61 62 63 63 63 63 63 62 59 55 49 43 40 41 44 46 48 49 49 48 46 46 46 45 48 51 53 53 54 54 54 52 52 54 56 55 55 56 56 57 56 51 45 47 49 44 38 38 39 32 25 23 23
42 43 44 45 46 47 48 50 51 52 53 53 53 54 56 57 58 59 60 60 61 63 64 65 65 64 64 63 61 58 54 48 42 40 42 45 48 50 51 50 49 48 48 47 47 49 52 53 54 55 55 55 54 53 54 55 54 53 55 58 61 60 52 42 43 47 44 38 39 40 34 26 23 23
44 45 46 47 48 49 51 52 53 54 54 54 55 56 57 58 59 60 61 62 63 64 65 66 66 65 64 62 59 57 55 50 44 41 43 46 48 50 51 51 51 50 50 50 49 50 51 53 55 57 57 57 58 56 53 52 52 53 53 56 59 60 56 47 42 43 41 37 38 41 36 28 24 23
46 47 48 49 50 52 53 53 54 55 55 56 57 57 58 59 60 61 62 63 64 65 65 66 65 64 63 61 59 57 56 53 48 45 46 49 51 51 52 52 51 51 52 52 51 52 53 55 56 58 58 57 58 57 55 52 51 50 50 53 58 63 65 57 44 39 38 37 38 41 37 28 25 24
48 49 51 52 52 53 54 54 55 56 57 58 58 59 60 60 61 62 63 64 64 65 65 65 64 62 61 60 59 58 56 55 52 50 50 52 53 54 54 53 53 53 53 53 53 54 57 61 62 61 58 56 55 55 53 51 51 49 46 50 58 65 69 63 50 40 38 37 39 41 37 29 26 25
50 51 52 52 53 54 54 55 56 57 58 59 60 61 62 63 63 64 64 64 64 64 64 64 63 61 60 59 59 59 57 56 55 54 54 55 55 56 56 55 54 54 53 52 54 57 61 67 70 65 58 55 54 54 49 47 50 49 44 48 57 63 65 67 60 46 37 36 40 42 37 30 27 25
50 51 52 53 54 54 56 57 58 59 59 61 62 63 64 65 65 66 65 65 65 64 64 63 61 60 60 59 58 57 57 55 54 54 56 56 56 56 57 56 55 54 52 52 55 58 62 70 72 64 54 51 51 50 46 46 51 51 45 48 56 59 61 67 64 49 37 37 43 42 35 30 27 25
51 52 53 54 55 56 57 58 59 60 61 62 63 65 66 66 67 67 66 66 65 64 63 62 61 60 60 60 58 57 56 55 54 53 54 55 55 54 55 55 54 52 52 53 55 58 62 66 66 59 49 45 44 44 42 43 49 51 47 47 54 64 70 68 57 44 37 40 43 40 33 29 27 25
52 53 54 55 56 57 58 59 60 61 62 64 65 66 67 67 67 68 67 66 66 65 63 62 61 60 61 61 60 59 57 56 55 54 54 55 55 54 54 55 52 50 51 53 55 58 60 61 59 53 46 42 41 39 36 34 37 43 45 44 47 61 73 68 49 38 38 41 40 36 31 28 26 25
53 54 55 56 57 58 59 60 62 63 64 65 67 67 68 68 68 68 68 67 66 64 63 62 61 61 61 61 60 60 59 58 57 56 55 55 55 54 54 53 50 48 50 52 53 55 56 55 52 48 43 39 37 34 31 30 33 39 47 50 50 58 70 68 51 38 37 40 37 33 30 27 25 25
54 55 56 57 58 60 61 62 63 64 65 66 68 68 69 70 69 69 68 67 66 64 63 62 62 62 62 61 60 58 57 56 56 56 56 55 54 53 53 51 49 47 49 51 51 51 51 50 48 45 40 37 35 34 33 35 38 42 47 53 57 63 69 65 50 37 36 36 33 29 28 26 24 25
56 57 58 59 60 61 63 63 64 65 66 68 69 70 70 70 70 70 69 67 65 64 62 62 63 63 62 62 60 57 55 55 54 55 54 52 51 51 50 49 46 45 45 46 45 46 47 47 45 42 38 34 31 31 31 32 37 42 46 52 58 63 61 53 41 34 35 34 30 28 28 26 25 25
59 60 61 62 62 63 64 65 66 67 68 69 70 71 71 71 71 71 69 67 65 64 62 62 63 63 63 62 60 57 54 53 53 53 52 50 49 48 46 45 44 44 43 43 42 42 45 46 44 41 37 33 29 26 24 25 31 38 42 47 52 55 52 45 37 35 37 34 30 29 28 26 24 24
61 62 63 63 64 65 66 66 67 68 69 70 71 71 72 73 72 72 70 68 66 64 62 62 63 64 63 62 60 57 55 54 53 53 52 49 47 45 44 44 45 46 45 43 41 42 44 46 44 40 35 32 29 26 23 21 23 27 32 37 42 43 42 40 38 37 36 33 29 28 26 24 23 23
Wind_Direction
20 11 1 352 344 343 347 351 356 359 0 3 3 3 9 15 17 20 23 22 21 20 20 18 15 14 12 13 13 13 11 8 6 5 3 2 2 3 3 3 2 1 0 360 359 359 359 359 359 356 352 349 345 342 340 336 334 332 333 334 333 332 331 331 332 332 334 338 341 342 343 345 346 349
7 3 358 351 345 341 340 342 347 352 352 352 353 351 354 0 6 11 13 12 10 11 13 12 10 10 9 9 10 10 8 6 4 2 359 358 357 357 357 357 357 356 355 356 356 358 359 359 359 358 355 352 348 346 344 340 335 332 331 333 333 332 330 330 330 330 332 336 339 340 341 343 345 348
343 345 343 343 345 343 340 338 338 341 342 342 342 339 339 345 353 2 4 1 358 359 2 3 4 3 2 2 4 5 4 2 360 358 355 353 352 351 352 352 353 353 352 352 354 355 356 356 356 356 355 353 351 349 347 343 340 336 333 332 333 332 331 330 330 329 329 332 335 337 338 341 344 347
323 325 326 330 338 341 340 338 332 330 329 327 327 327 329 336 344 351 352 349 349 350 352 354 355 354 353 354 355 356 355 353 351 349 348 347 346 346 346 347 347 348 348 349 351 352 353 353 353 353 352 351 350 349 347 344 342 340 336 333 331 331 331 331 330 328 326 328 331 333 336 339 343 347
308 310 312 318 327 334 336 334 328 320 314 312 315 318 324 331 337 342 342 342 344 346 348 348 347 347 345 345 345 345 344 343 342 341 341 341 341 341 341 342 342 343 344 346 348 349 349 349 349 349 349 349 348 347 348 347 343 341 339 336 333 332 332 331 329 326 325 326 328 331 334 338 342 346
299 300 303 308 317 325 326 326 324 319 309 307 311 316 323 326 332 336 337 337 341 343 343 343 343 342 340 339 338 338 337 338 337 336 336 337 337 337 337 338 339 340 342 344 346 347 347 346 346 346 347 348 347 348 350 350 346 343 342 340 337 336 334 331 328 325 323 324 326 329 333 337 342 346
289 292 296 302 310 316 315 315 318 320 316 313 314 318 322 324 329 335 334 335 340 342 340 339 340 339 337 337 337 335 335 335 335 333 333 334 335 335 335 335 336 337 339 341 343 344 344 344 343 343 344 345 347 350 350 349 348 346 344 342 340 339 337 333 329 326 323 323 325 329 333 336 341 345
281 286 290 295 303 306 307 310 319 323 319 318 321 322 321 323 330 335 334 336 340 342 340 338 340 340 337 336 337 336 335 335 334 331 330 333 335 333 333 334 335 335 336 339 341 341 342 341 340 340 342 342 344 348 349 348 347 345 343 342 341 340 339 337 334 329 324 322 323 328 332 335 340 345
267 273 278 286 287 286 292 303 316 322 321 325 328 324 322 327 334 337 339 341 343 345 341 338 340 340 336 336 335 333 333 334 332 328 327 331 333 331 331 333 333 332 333 335 338 338 338 338 337 338 339 340 342 345 346 347 345 343 343 342 341 340 339 338 337 333 326 322 324 328 332 334 339 344
243 249 256 259 255 259 276 296 310 315 317 324 325 321 324 332 339 342 342 343 345 344 341 338 337 335 335 336 332 328 328 330 328 323 321 326 329 327 329 332 331 329 329 331 334 335 335 334 334 336 338 339 340 342 343 342 342 343 343 343 342 341 339 337 337 335 328 322 324 328 330 333 338 343
211 209 203 197 205 212 229 341 339 322 321 327 324 321 327 336 342 342 340 340 339 337 337 335 332 329 330 331 326 321 322 324 321 317 318 323 324 324 328 331 328 326 326 328 331 332 333 332 332 334 337 337 338 340 340 340 340 341 341 341 340 340 339 337 336 336 330 322 322 325 328 332 338 342
182 178 171 163 153 138 116 89 8 324 321 325 319 317 325 334 337 335 334 334 332 329 330 330 325 324 326 325 320 317 317 318 316 314 317 323 323 322 326 328 327 325 324 325 328 330 330 329 329 330 332 333 334 336 337 337 337 337 338 339 339 338 339 338 337 335 329 321 321 324 327 332 336 341
182 180 177 166 159 148 338 304 300 302 306 311 309 310 320 328 330 330 330 329 327 325 326 325 321 320 322 319 315 314 314 315 313 313 318 323 322 321 324 326 325 325 323 323 325 328 327 325 325 326 326 326 328 330 332 333 333 333 333 335 336 335 336 337 337 336 329 319 320 323 326 331 335 338
195 194 193 200 239 290 300 300 305 309 310 310 308 310 320 328 330 329 329 326 323 322 323 322 319 320 320 315 311 313 314 314 315 317 319 322 321 320 320 322 323 322 320 319 321 324 322 320 321 322 321 321 323 324 326 327 328 328 327 328 330 330 331 333 336 336 330 319 317 321 323 327 332 335
205 206 213 233 265 288 295 301 309 311 310 309 309 313 322 328 328 326 325 323 320 320 321 322 321 321 320 314 312 315 314 313 316 318 318 318 317 315 316 318 319 316 312 312 315 317 316 316 317 317 317 317 318 319 320 321 322 322 322 323 325 325 326 329 332 334 331 321 312 316 319 323 328 332
214 219 227 242 268 288 296 305 310 310 308 306 307 312 318 323 322 319 319 319 318 317 318 320 321 321 319 316 315 314 311 311 314 315 313 311 310 311 313 316 315 311 307 308 309 309 311 313 312 313 313 313 313 313 314 315 316 317 318 318 320 321 321 324 326 329 330 323 310 308 314 318 323 328
221 228 237 249 273 289 297 304 306 305 305 304 305 309 312 315 314 312 314 316 314 313 314 317 320 318 316 317 316 311 307 307 308 308 307 307 308 311 313 315 314 310 308 308 307 306 308 307 305 307 309 308 307 307 308 310 311 312 313 313 315 316 317 319 321 324 327 323 311 302 308 313 317 323
229 235 243 253 273 286 293 297 297 298 300 299 301 303 305 306 305 306 308 307 306 308 311 313 315 312 311 314 313 308 308 308 306 305 307 309 311 312 313 313 311 310 310 308 306 307 307 302 300 304 304 301 301 302 303 305 307 308 308 308 309 312 313 314 317 320 322 320 312 299 301 308 311 317
237 242 248 255 266 277 284 288 289 291 292 293 295 297 298 299 300 303 303 300 302 307 308 308 310 309 308 310 310 310 311 312 311 310 311 313 314 313 312 311 310 308 308 306 304 305 304 300 300 301 297 294 295 296 298 300 302 303 303 303 305 307 308 309 315 319 317 316 312 300 294 302 307 311
239 244 249 254 260 268 276 281 284 286 286 287 288 289 291 295 301 305 302 300 304 308 306 306 308 307 306 309 312 313 313 314 314 312 312 315 315 312 312 312 310 305 303 303 302 303 303 301 299 297 293 290 291 292 295 297 297 297 298 299 300 302 303 305 310 316 314 311 309 301 290 294 301 305
240 243 249 255 261 268 274 278 281 282 283 285 286 287 291 299 307 309 303 302 306 305 303 306 309 308 309 310 312 314 314 315 313 311 313 316 312 310 312 314 310 304 301 303 303 302 301 300 298 296 294 293 293 293 295 295 294 294 295 297 296 297 299 300 305 310 310 307 306 300 288 288 295 299
242 246 253 261 267 271 274 276 277 278 282 287 289 291 296 303 308 308 304 303 304 302 303 309 311 312 313 313 312 313 312 312 311 310 314 314 309 308 311 312 308 305 306 308 304 300 299 299 297 296 296 296 296 295 294 294 292 289 291 295 295 293 294 296 299 304 306 306 305 299 285 283 289 293
247 252 259 266 271 273 274 275 277 281 287 292 295 296 298 304 311 310 305 303 303 304 307 311 311 311 312 310 309 308 306 306 307 307 309 309 306 306 308 306 305 306 310 311 304 299 299 299 298 298 297 297 297 294 295 298 295 287 285 289 291 291 291 291 293 299 302 303 303 297 282 277 283 287
253 260 266 269 272 273 275 279 283 288 293 296 298 297 297 303 310 307 302 301 301 303 304 304 304 305 305 303 303 302 301 302 303 303 305 305 303 303 304 304 303 306 310 309 302 299 299 300 301 300 298 296 297 295 296 300 300 292 285 283 284 286 289 289 289 293 297 298 298 294 280 272 278 282
259 263 266 268 270 272 276 281 286 290 293 296 297 295 294 299 304 300 297 297 297 297 299 300 302 304 304 302 302 301 301 300 300 300 301 301 301 301 303 303 303 304 307 305 300 298 300 301 300 299 296 296 296 295 294 297 302 300 294 286 280 280 284 287 288 289 292 294 294 291 280 268 271 278
260 262 263 265 268 272 276 281 285 289 292 293 294 294 294 298 301 298 295 296 297 300 304 307 308 307 306 305 305 304 304 303 303 302 303 302 302 302 302 302 302 304 306 304 300 300 302 302 299 297 296 295 294 293 293 295 300 303 300 294 285 275 274 282 286 286 289 291 289 288 279 266 266 274
260 262 264 267 270 274 278 283 286 289 290 291 294 296 297 300 302 300 299 301 302 305 309 309 309 310 310 310 310 311 311 310 310 309 308 306 304 303 303 303 303 305 307 306 303 303 305 305 302 299 297 295 292 291 293 295 297 299 301 299 289 273 268 276 284 284 285 286 284 284 279 264 261 269
263 265 268 271 274 278 282 286 288 289 291 293 295 298 300 302 304 303 304 304 304 306 308 308 309 310 311 311 312 313 313 312 312 311 309 308 307 306 305 305 304 306 308 306 304 304 305 304 303 300 297 295 292 290 291 293 295 296 298 299 292 279 270 271 277 281 282 280 278 280 278 262 256 264
267 269 271 274 278 282 285 288 289 291 292 294 296 298 300 302 304 305 305 306 306 307 309 309 310 311 311 311 312 312 312 311 311 309 307 306 306 307 307 305 305 306 308 306 303 302 302 302 301 299 297 297 294 290 288 288 289 291 293 293 293 287 278 273 272 275 279 278 275 278 275 259 252 260
270 272 274 278 282 285 287 288 290 291 292 294 296 298 300 302 304 306 307 307 308 309 310 311 313 314 313 312 312 312 310 309 308 305 302 302 305 307 306 303 304 306 306 303 300 299 299 299 299 297 297 296 294 290 288 286 283 284 287 287 287 286 285 282 274 268 272 276 274 275 273 256 247 256
273 276 279 282 284 285 286 288 289 290 292 294 296 298 300 302 304 305 306 307 308 310 312 314 316 316 316 315 314 312 310 309 306 301 299 301 305 306 305 303 305 307 304 301 299 299 298 297 296 295 295 295 294 292 290 286 281 280 282 283 282 280 283 285 277 267 267 273 273 272 269 254 244 251
276 279 281 283 284 285 286 287 288 290 292 294 295 297 299 301 302 303 304 307 309 312 314 315 316 317 316 316 315 313 311 309 305 300 300 303 305 306 305 305 307 307 305 303 304 302 300 298 296 294 293 293 294 292 290 286 282 279 279 280 280 278 276 278 277 270 265 266 268 269 266 252 242 247
277 278 279 281 282 283 285 286 287 290 292 294 295 297 299 300 301 303 305 308 311 313 314 315 316 316 316 316 316 314 312 310 305 301 302 304 305 306 306 307 308 308 306 307 307 305 303 301 298 295 293 293 292 290 288 285 281 278 277 277 279 279 274 269 273 273 267 262 264 267 265 254 242 243
276 277 279 280 281 283 284 286 288 290 292 293 295 297 298 300 302 304 307 310 311 313 314 315 316 316 316 317 317 316 314 310 305 302 303 304 305 305 306 307 310 310 309 310 310 309 306 303 300 297 294 292 291 290 288 284 279 275 273 272 274 275 269 262 266 272 267 260 261 265 263 253 240 238
277 278 279 280 281 283 285 287 289 290 292 294 295 297 299 301 303 305 307 309 311 312 314 314 315 316 316 317 318 317 316 312 307 305 305 306 307 307 307 309 310 311 311 311 311 311 310 309 305 300 294 290 290 288 286 284 282 276 270 268 272 272 266 260 263 272 269 259 258 263 262 250 236 236
277 278 279 280 282 284 286 288 289 291 292 294 296 297 299 301 303 305 307 308 310 312 313 314 315 316 317 318 318 318 316 313 309 307 307 308 308 308 308 309 310 311 311 311 312 313 316 317 313 304 294 289 287 285 283 284 283 275 265 264 270 271 265 259 260 272 272 260 255 260 259 245 232 234
276 278 279 281 283 285 286 288 289 291 293 294 296 298 300 301 303 304 306 308 310 312 313 314 316 317 317 318 318 317 316 314 310 308 308 309 309 309 309 309 310 311 312 312 314 316 319 320 317 308 296 287 284 283 282 280 277 272 263 260 265 268 266 261 261 267 268 256 252 257 255 241 229 231
277 278 280 281 283 284 286 288 290 292 294 295 297 299 300 302 303 304 306 309 311 312 314 314 315 316 317 318 317 315 314 312 309 307 307 308 310 310 310 310 311 312 313 315 316 317 318 320 320 314 301 288 282 280 277 274 273 271 263 254 256 261 261 258 258 261 260 252 251 254 250 235 226 229
277 279 280 281 283 285 287 289 291 293 295 296 298 299 300 301 303 305 307 309 311 313 314 314 315 316 317 317 316 314 312 310 308 307 307 308 309 309 308 309 311 314 316 316 315 315 317 321 322 319 307 292 283 279 274 271 275 276 266 253 254 259 257 252 252 256 254 249 251 251 242 228 223 228
278 279 281 283 285 287 289 291 292 294 295 296 297 298 300 301 303 305 307 309 311 313 313 314 314 315 316 317 316 315 313 312 311 310 309 309 310 310 310 312 315 316 316 314 312 313 318 323 325 324 313 297 288 282 275 274 280 278 266 256 258 261 255 248 247 254 252 247 249 246 233 221 221 228
279 281 283 285 287 289 290 291 293 294 295 296 297 298 300 301 303 305 307 309 311 313 313 314 314 314 315 316 316 315 314 313 313 314 314 313 314 315 315 316 316 315 313 311 310 313 319 327 332 331 321 307 293 282 276 282 288 279 267 262 265 265 256 247 247 253 251 246 245 239 224 216 221 228
282 284 285 287 288 289 290 291 292 293 295 296 297 298 300 301 303 304 307 309 311 313 313 313 313 313 314 315 315 315 314 314 314 316 317 317 316 316 315 315 315 314 312 312 313 316 322 331 339 337 328 313 298 283 279 287 290 284 275 269 266 261 254 247 247 250 248 244 240 229 218 215 222 229
284 285 286 287 288 289 290 291 292 293 294 296 297 298 299 301 302 304 307 309 312 313 312 312 312 312 313 314 315 315 315 314 314 316 317 317 314 313 313 313 312 311 313 315 318 321 324 331 339 340 333 322 305 291 287 291 290 285 279 270 260 253 248 246 247 249 247 243 235 222 215 216 222 229
284 284 285 286 288 289 290 291 292 293 294 295 296 297 299 301 303 305 307 309 311 312 311 310 311 311 312 313 314 315 314 313 313 314 315 315 312 310 311 310 308 309 312 317 320 322 323 328 335 340 338 335 328 316 308 304 295 283 273 264 255 250 249 252 255 253 247 240 230 219 215 217 222 230
283 284 285 286 288 289 290 291 292 293 294 295 296 298 299 301 303 305 307 309 310 311 310 309 309 310 311 312 314 314 313 312 312 312 313 312 310 307 307 307 307 309 314 317 320 322 324 327 334 339 340 340 341 339 332 320 303 285 270 260 255 252 254 257 256 250 243 236 225 217 215 218 225 234
Height
5950 5950 5950 5949 5949 5949 5949 5949 5948 5948 5948 5948 5948 5947 5946 5945 5945 5945 5945 5946 5945 5945 5945 5944 5943 5943 5942 5941 5940 5939 5938 5938 5937 5936 5935 5934 5933 5932 5931 5930 5928 5927 5925 5924 5922 5920 5918 5916 5914 5911 5909 5906 5904 5901 5899 5897 5895 5893 5891 5889 5887 5885 5883 5881 5878 5876 5874 5871 5869 5866 5863 5860 5857 5853
5950 5950 5949 5949 5949 5948 5948 5948 5948 5948 5948 5947 5947 5946 5946 5945 5945 5945 5946 5946 5945 5945 5944 5944 5943 5942 5941 5941 5940 5939 5938 5937 5937 5936 5935 5934 5933 5932 5931 5929 5928 5926 5924 5923 5921 5919 5917 5915 5912 5910 5907 5905 5902 5899 5897 5895 5892 5890 5889 5887 5885 5883 5881 5879 5876 5874 5872 5869 5867 5864 5861 5858 5855 5852
5949 5949 5949 5948 5948 5948 5948 5948 5947 5947 5947 5947 5946 5946 5946 5946 5945 5946 5946 5945 5945 5944 5944 5943 5943 5942 5941 5940 5940 5939 5938 5937 5936 5935 5935 5933 5932 5931 5930 5928 5927 5925 5923 5921 5919 5917 5915 5913 5910 5908 5906 5903 5901 5898 5896 5893 5891 5888 5886 5885 5883 5881 5879 5876 5874 5872 5870 5867 5865 5862 5860 5857 5854 5850
5948 5948 5948 5947 5948 5948 5948 5947 5947 5947 5946 5946 5946 5946 5946 5945 5945 5945 5945 5945 5944 5944 5943 5942 5942 5941 5940 5940 5939 5938 5937 5936 5936 5935 5934 5933 5931 5930 5928 5927 5925 5923 5921 5919 5917 5915 5913 5911 5909 5907 5905 5902 5900 5897 5894 5892 5889 5887 5884 5882 5881 5879 5876 5874 5872 5870 5868 5865 5863 5861 5858 5856 5852 5849
5947 5947 5947 5947 5947 5947 5947 5947 5947 5946 5946 5945 5945 5945 5945 5945 5945 5944 5944 5944 5943 5943 5942 5942 5941 5940 5939 5939 5938 5937 5937 5936 5935 5934 5932 5931 5930 5928 5926 5925 5923 5921 5920 5918 5916 5913 5911 5909 5907 5905 5903 5901 5899 5896 5893 5890 5888 5885 5883 5881 5879 5876 5874 5871 5869 5867 5865 5863 5861 5859 5857 5854 5851 5847
5946 5946 5946 5946 5946 5946 5946 5946 5945 5945 5945 5945 5945 5945 5944 5944 5944 5944 5943 5943 5942 5942 5941 5941 5940 5939 5939 5938 5937 5936 5936 5935 5933 5932 5931 5929 5928 5926 5925 5923 5921 5919 5918 5916 5914 5912 5910 5908 5905 5903 5901 5899 5897 5895 5892 5889 5886 5884 5881 5879 5877 5874 5872 5869 5867 5865 5863 5861 5859 5857 5855 5853 5850 5846
5944 5944 5944 5944 5944 5944 5944 5944 5944 5944 5943 5943 5943 5943 5943 5943 5943 5943 5942 5942 5942 5941 5940 5940 5939 5938 5937 5936 5936 5935 5934 5933 5932 5930 5928 5927 5926 5924 5923 5921 5919 5918 5916 5914 5912 5910 5908 5906 5903 5901 5899 5897 5895 5893 5890 5888 5885 5882 5880 5877 5875 5872 5870 5867 5865 5862 5861 5859 5857 5855 5853 5851 5848 5845
5943 5942 5942 5942 5942 5942 5942 5942 5942 5942 5942 5942 5942 5941 5941 5942 5942 5942 5942 5941 5941 5941 5940 5939 5938 5937 5935 5934 5933 5932 5931 5930 5929 5928 5926 5925 5924 5922 5921 5919 5917 5916 5914 5913 5910 5908 5906 5904 5902 5900 5898 5895 5893 5892 5889 5886 5883 5881 5878 5876 5873 5871 5868 5865 5863 5860 5858 5857 5855 5853 5852 5849 5847 5844
5942 5941 5941 5941 5941 5941 5941 5941 5940 5940 5940 5940 5940 5940 5940 5940 5940 5940 5940 5940 5940 5939 5939 5937 5936 5936 5934 5933 5931 5930 5929 5928 5926 5925 5923 5922 5921 5920 5918 5917 5915 5914 5912 5911 5909 5906 5904 5902 5900 5898 5896 5894 5892 5890 5888 5885 5882 5880 5877 5874 5871 5869 5866 5863 5861 5858 5856 5854 5852 5851 5850 5848 5845 5842
5940 5940 5940 5940 5940 5940 5940 5940 5939 5939 5939 5939 5939 5938 5938 5938 5938 5938 5938 5938 5937 5937 5937 5936 5935 5934 5933 5932 5931 5928 5927 5926 5924 5922 5920 5919 5918 5917 5916 5915 5913 5911 5910 5908 5907 5905 5902 5901 5899 5897 5895 5892 5890 5888 5886 5884 5881 5878 5876 5873 5870 5867 5864 5861 5859 5856 5854 5852 5850 5849 5848 5846 5844 5841
5939 5939 5939 5939 5939 5939 5939 5939 5939 5938 5938 5938 5938 5937 5937 5937 5937 5937 5937 5936 5936 5935 5935 5935 5934 5933 5932 5931 5929 5927 5926 5925 5923 5920 5918 5917 5916 5914 5914 5913 5911 5909 5907 5906 5904 5903 5901 5899 5897 5895 5893 5891 5888 5886 5884 5882 5880 5877 5874 5871 5868 5865 5862 5859 5857 5854 5851 5849 5848 5847 5846 5844 5842 5839
5938 5938 5938 5939 5939 5939 5939 5939 5938 5938 5938 5938 5937 5937 5937 5937 5937 5937 5936 5935 5935 5934 5934 5933 5932 5931 5930 5928 5927 5925 5924 5923 5921 5918 5916 5916 5915 5912 5911 5910 5909 5906 5905 5904 5902 5901 5898 5896 5895 5893 5891 5889 5886 5884 5882 5880 5878 5875 5872 5870 5866 5863 5860 5858 5855 5852 5850 5847 5846 5845 5844 5842 5840 5838
5937 5938 5938 5938 5938 5938 5938 5938 5938 5937 5937 5937 5937 5937 5937 5937 5937 5936 5935 5934 5933 5932 5932 5931 5930 5929 5928 5927 5924 5923 5921 5920 5919 5917 5915 5914 5913 5910 5908 5908 5906 5904 5901 5900 5900 5899 5896 5893 5892 5890 5888 5886 5884 5882 5880 5878 5875 5873 5871 5868 5865 5862 5859 5856 5853 5850 5848 5845 5843 5842 5842 5840 5838 5836
5936 5937 5937 5937 5937 5937 5937 5937 5936 5936 5936 5936 5936 5935 5936 5936 5936 5935 5934 5933 5932 5931 5930 5930 5928 5927 5927 5925 5922 5921 5919 5917 5916 5915 5913 5912 5911 5908 5906 5906 5905 5902 5898 5896 5896 5896 5894 5891 5889 5887 5885 5883 5880 5879 5877 5875 5873 5870 5868 5866 5863 5860 5857 5854 5851 5848 5846 5843 5841 5840 5839 5838 5836 5834
5936 5936 5936 5936 5936 5936 5936 5936 5935 5935 5934 5934 5934 5934 5934 5935 5934 5933 5932 5931 5930 5928 5928 5927 5926 5925 5924 5923 5921 5919 5918 5915 5914 5912 5910 5909 5907 5905 5903 5902 5902 5900 5895 5892 5892 5892 5891 5888 5885 5884 5882 5879 5876 5875 5874 5872 5870 5868 5865 5863 5861 5858 5855 5852 5849 5846 5844 5841 5839 5838 5837 5836 5834 5832
5935 5935 5935 5935 5935 5935 5935 5934 5934 5934 5933 5932 5932 5932 5932 5933 5932 5931 5930 5929 5927 5925 5925 5925 5924 5922 5922 5921 5919 5917 5915 5913 5911 5909 5907 5905 5903 5902 5899 5899 5898 5896 5891 5888 5887 5887 5887 5885 5882 5881 5879 5876 5872 5870 5870 5868 5866 5864 5862 5860 5858 5855 5853 5850 5847 5844 5842 5840 5838 5836 5835 5834 5832 5830
5933 5934 5934 5934 5934 5934 5934 5933 5933 5932 5931 5930 5930 5930 5931 5931 5930 5929 5928 5927 5925 5923 5922 5921 5921 5920 5918 5918 5917 5914 5911 5909 5907 5905 5903 5900 5898 5897 5896 5895 5894 5892 5888 5884 5882 5883 5883 5880 5878 5877 5875 5871 5868 5866 5865 5864 5862 5860 5858 5855 5854 5852 5849 5847 5845 5842 5840 5838 5836 5834 5832 5831 5830 5828
5932 5932 5933 5933 5933 5933 5932 5932 5931 5930 5929 5928 5928 5928 5929 5929 5928 5927 5926 5925 5922 5920 5918 5918 5919 5918 5915 5914 5913 5911 5906 5904 5902 5900 5898 5895 5893 5892 5892 5891 5890 5887 5884 5880 5877 5878 5879 5874 5872 5873 5871 5866 5863 5861 5859 5859 5857 5855 5853 5851 5849 5848 5846 5843 5842 5840 5837 5835 5833 5832 5830 5828 5827 5826
5931 5931 5931 5932 5932 5931 5931 5930 5929 5928 5927 5926 5926 5926 5926 5926 5925 5924 5923 5922 5920 5918 5916 5915 5915 5914 5911 5909 5908 5906 5903 5900 5898 5895 5893 5890 5888 5887 5887 5886 5884 5882 5880 5877 5872 5873 5875 5869 5866 5867 5865 5860 5858 5856 5853 5853 5852 5850 5848 5846 5844 5843 5841 5839 5838 5837 5834 5832 5830 5829 5827 5825 5824 5823
5929 5929 5930 5930 5930 5930 5929 5928 5927 5926 5925 5924 5924 5924 5924 5923 5923 5922 5920 5918 5917 5915 5913 5912 5911 5910 5907 5905 5903 5901 5898 5895 5893 5890 5887 5886 5884 5881 5880 5879 5878 5875 5873 5872 5868 5866 5868 5865 5860 5859 5857 5854 5852 5851 5848 5847 5846 5844 5843 5841 5839 5838 5836 5834 5834 5833 5831 5829 5827 5825 5824 5822 5821 5820
5927 5928 5928 5928 5928 5928 5927 5926 5925 5924 5922 5921 5921 5921 5922 5922 5921 5920 5918 5916 5915 5913 5910 5909 5907 5905 5904 5901 5899 5897 5894 5891 5888 5884 5882 5882 5878 5874 5872 5872 5869 5865 5867 5870 5865 5857 5857 5857 5853 5851 5849 5845 5844 5844 5842 5840 5839 5837 5837 5835 5834 5832 5830 5829 5829 5828 5827 5825 5822 5821 5820 5819 5817 5816
5925 5926 5926 5926 5925 5925 5924 5923 5922 5920 5919 5918 5918 5917 5919 5920 5920 5918 5915 5913 5912 5909 5906 5906 5904 5902 5900 5897 5894 5893 5890 5887 5884 5879 5878 5878 5873 5867 5867 5865 5860 5858 5863 5868 5861 5850 5849 5850 5846 5843 5841 5837 5836 5836 5834 5833 5832 5831 5830 5829 5828 5826 5824 5824 5824 5823 5822 5821 5818 5817 5816 5815 5814 5813
5923 5923 5923 5923 5922 5922 5921 5920 5919 5917 5915 5915 5914 5913 5915 5917 5918 5915 5912 5909 5907 5905 5904 5903 5902 5900 5899 5895 5892 5890 5887 5884 5881 5877 5875 5874 5869 5864 5862 5860 5856 5853 5858 5861 5852 5842 5842 5844 5839 5835 5832 5829 5829 5829 5826 5825 5824 5823 5823 5823 5822 5820 5818 5818 5818 5818 5817 5816 5814 5812 5811 5810 5810 5809
5920 5920 5920 5920 5919 5918 5918 5916 5915 5914 5912 5911 5910 5908 5909 5914 5916 5913 5909 5906 5904 5903 5902 5901 5899 5899 5898 5894 5891 5888 5885 5883 5879 5875 5872 5869 5864 5860 5857 5854 5850 5847 5850 5853 5843 5832 5835 5838 5834 5829 5825 5822 5821 5820 5819 5818 5816 5814 5814 5815 5815 5815 5812 5811 5812 5812 5811 5810 5809 5808 5807 5806 5806 5806
5917 5917 5917 5916 5915 5915 5915 5914 5912 5911 5909 5907 5906 5902 5901 5909 5913 5910 5905 5903 5901 5900 5899 5897 5895 5895 5892 5890 5887 5885 5883 5881 5877 5872 5869 5866 5861 5856 5851 5848 5844 5839 5842 5845 5836 5826 5829 5833 5829 5823 5820 5818 5816 5814 5813 5812 5810 5808 5806 5805 5806 5808 5806 5805 5805 5806 5805 5805 5804 5804 5802 5802 5802 5802
5914 5914 5914 5913 5912 5912 5912 5911 5910 5909 5906 5904 5902 5897 5893 5900 5907 5904 5900 5899 5896 5894 5893 5891 5889 5888 5886 5883 5881 5879 5878 5876 5872 5867 5864 5861 5857 5853 5847 5843 5838 5833 5835 5836 5829 5821 5822 5825 5822 5817 5814 5812 5810 5807 5805 5805 5804 5803 5800 5797 5798 5799 5799 5798 5799 5800 5799 5799 5799 5799 5798 5798 5798 5797
5911 5911 5910 5910 5909 5908 5908 5908 5907 5906 5904 5901 5899 5894 5888 5891 5897 5896 5893 5890 5888 5887 5887 5884 5882 5882 5879 5875 5873 5871 5868 5866 5862 5859 5856 5854 5851 5847 5843 5839 5833 5829 5828 5827 5822 5817 5815 5816 5814 5810 5806 5805 5804 5801 5799 5798 5797 5796 5794 5792 5790 5790 5790 5791 5792 5793 5793 5793 5793 5793 5793 5793 5793 5793
5907 5907 5906 5906 5905 5904 5904 5904 5903 5902 5900 5897 5894 5891 5886 5884 5886 5886 5884 5882 5879 5879 5880 5878 5875 5874 5872 5868 5865 5863 5860 5856 5853 5851 5848 5845 5842 5839 5836 5833 5829 5825 5823 5821 5817 5813 5810 5808 5806 5803 5801 5799 5798 5796 5795 5792 5790 5789 5788 5786 5784 5783 5783 5784 5786 5787 5787 5787 5788 5788 5788 5788 5789 5789
5903 5903 5902 5902 5901 5901 5900 5900 5899 5897 5895 5893 5890 5887 5883 5880 5879 5878 5877 5875 5873 5872 5871 5870 5869 5868 5865 5862 5859 5857 5853 5850 5847 5844 5841 5838 5835 5832 5829 5826 5823 5821 5819 5816 5812 5808 5804 5801 5798 5796 5795 5794 5792 5791 5790 5787 5784 5782 5782 5781 5780 5778 5776 5777 5779 5781 5781 5781 5782 5783 5783 5783 5784 5784
5899 5898 5898 5898 5898 5897 5896 5895 5894 5892 5890 5888 5885 5882 5879 5877 5875 5873 5871 5869 5867 5865 5863 5862 5861 5860 5858 5855 5852 5850 5846 5843 5841 5838 5835 5832 5830 5827 5823 5820 5817 5816 5814 5812 5808 5804 5799 5796 5791 5788 5788 5787 5785 5784 5784 5781 5778 5776 5775 5775 5774 5772 5771 5771 5772 5774 5775 5775 5776 5777 5778 5778 5779 5779
5894 5894 5894 5893 5893 5892 5891 5889 5888 5887 5885 5882 5880 5877 5875 5872 5870 5868 5866 5864 5861 5859 5856 5854 5853 5851 5849 5846 5844 5841 5838 5836 5834 5832 5827 5825 5823 5821 5817 5813 5811 5810 5808 5806 5803 5799 5794 5790 5786 5782 5780 5778 5776 5775 5774 5773 5770 5769 5768 5768 5767 5765 5766 5766 5765 5766 5768 5769 5770 5771 5772 5773 5773 5774
5890 5890 5889 5888 5888 5887 5886 5884 5882 5881 5879 5877 5875 5872 5870 5868 5866 5864 5861 5859 5856 5853 5851 5848 5846 5844 5841 5838 5835 5832 5829 5827 5826 5824 5820 5818 5816 5813 5810 5806 5804 5803 5800 5798 5796 5792 5787 5783 5779 5775 5772 5770 5769 5768 5765 5763 5762 5761 5761 5759 5758 5758 5759 5759 5758 5759 5762 5763 5764 5765 5766 5767 5768 5769
5886 5885 5884 5883 5882 5881 5880 5879 5877 5875 5873 5871 5869 5867 5865 5863 5861 5858 5856 5853 5850 5848 5845 5842 5840 5837 5834 5831 5827 5823 5821 5820 5818 5816 5814 5811 5809 5806 5802 5799 5797 5795 5792 5790 5787 5784 5779 5775 5771 5767 5764 5762 5761 5760 5758 5756 5754 5753 5753 5751 5748 5749 5752 5753 5751 5751 5754 5757 5758 5759 5760 5761 5762 5764
5880 5880 5879 5878 5877 5875 5874 5873 5871 5869 5867 5865 5864 5861 5859 5857 5854 5852 5850 5847 5845 5842 5839 5836 5833 5830 5826 5823 5820 5816 5813 5812 5810 5809 5807 5805 5802 5799 5795 5792 5790 5787 5783 5780 5778 5774 5770 5766 5762 5758 5755 5753 5750 5749 5749 5747 5746 5746 5745 5743 5740 5741 5743 5744 5743 5743 5746 5750 5752 5752 5754 5756 5757 5758
5875 5874 5873 5872 5871 5869 5868 5866 5865 5863 5861 5859 5858 5856 5853 5851 5849 5847 5845 5843 5840 5838 5835 5831 5828 5824 5820 5816 5813 5810 5806 5804 5802 5801 5799 5796 5793 5791 5788 5785 5782 5778 5774 5771 5769 5765 5761 5758 5754 5749 5746 5744 5741 5739 5737 5738 5739 5739 5737 5734 5733 5733 5734 5735 5736 5737 5740 5743 5745 5747 5748 5750 5751 5753
5869 5868 5867 5866 5864 5863 5861 5860 5858 5856 5855 5853 5851 5849 5847 5845 5843 5841 5840 5838 5835 5833 5830 5826 5822 5818 5814 5810 5806 5803 5800 5797 5795 5793 5791 5788 5785 5782 5779 5777 5774 5770 5767 5764 5760 5756 5752 5748 5745 5740 5735 5733 5731 5729 5729 5729 5730 5730 5729 5728 5726 5726 5726 5727 5729 5731 5734 5737 5740 5741 5742 5744 5745 5747
5863 5862 5861 5860 5858 5857 5855 5853 5852 5850 5848 5846 5844 5842 5840 5839 5837 5835 5834 5832 5830 5827 5823 5819 5815 5811 5807 5804 5800 5797 5793 5790 5788 5785 5783 5780 5777 5774 5771 5768 5765 5762 5759 5756 5751 5746 5742 5737 5733 5728 5724 5721 5720 5719 5721 5722 5721 5721 5722 5721 5719 5719 5718 5719 5722 5726 5730 5732 5733 5735 5736 5738 5740 5742
5857 5856 5855 5853 5852 5851 5849 5847 5846 5844 5842 5840 5838 5836 5834 5832 5830 5828 5827 5825 5823 5820 5816 5812 5809 5805 5802 5798 5795 5792 5788 5785 5782 5779 5776 5773 5770 5767 5764 5761 5758 5754 5751 5748 5743 5738 5734 5729 5722 5715 5711 5710 5710 5710 5712 5713 5713 5713 5714 5714 5713 5712 5710 5711 5717 5722 5724 5725 5726 5728 5730 5732 5734 5737
5851 5850 5849 5847 5846 5844 5843 5841 5839 5838 5835 5833 5831 5829 5827 5825 5823 5821 5819 5817 5815 5812 5808 5805 5802 5798 5795 5792 5789 5786 5783 5780 5777 5775 5771 5768 5765 5762 5758 5754 5751 5747 5743 5740 5736 5732 5728 5723 5716 5707 5701 5699 5701 5702 5703 5705 5705 5705 5706 5707 5706 5703 5701 5706 5714 5717 5718 5718 5721 5723 5725 5728 5730 5732
5845 5843 5842 5841 5839 5838 5836 5834 5833 5831 5829 5826 5824 5822 5820 5819 5816 5814 5812 5810 5807 5804 5801 5798 5795 5792 5788 5785 5782 5779 5775 5772 5770 5767 5765 5762 5759 5756 5752 5747 5743 5740 5737 5734 5730 5726 5722 5717 5711 5702 5696 5693 5693 5693 5694 5695 5697 5698 5699 5700 5699 5697 5696 5702 5708 5710 5711 5713 5716 5718 5720 5723 5725 5727
5838 5837 5836 5834 5833 5831 5829 5827 5826 5824 5822 5820 5817 5815 5813 5811 5809 5807 5805 5802 5800 5797 5794 5790 5787 5785 5782 5779 5776 5772 5769 5765 5762 5759 5757 5754 5751 5748 5745 5741 5738 5734 5732 5729 5725 5720 5717 5713 5706 5699 5693 5690 5688 5688 5687 5687 5689 5692 5693 5693 5693 5693 5694 5697 5702 5705 5707 5709 5712 5713 5716 5718 5720 5723
5831 5830 5829 5827 5826 5824 5822 5820 5819 5817 5815 5813 5810 5808 5806 5804 5802 5800 5797 5795 5793 5790 5787 5783 5780 5778 5775 5773 5770 5767 5763 5760 5756 5753 5750 5748 5745 5742 5739 5736 5733 5730 5726 5723 5718 5714 5711 5708 5703 5696 5691 5686 5683 5683 5683 5683 5684 5685 5686 5686 5687 5690 5691 5694 5698 5701 5704 5706 5707 5709 5711 5714 5716 5719
5824 5822 5821 5820 5818 5816 5815 5813 5812 5810 5807 5805 5803 5801 5798 5796 5794 5792 5790 5788 5786 5783 5780 5777 5774 5771 5769 5767 5764 5762 5758 5755 5752 5749 5747 5744 5742 5739 5735 5732 5729 5726 5722 5717 5713 5710 5707 5704 5700 5696 5690 5684 5680 5677 5677 5678 5679 5680 5681 5682 5685 5688 5690 5692 5695 5698 5700 5702 5703 5704 5706 5709 5711 5714
5816 5815 5813 5812 5811 5809 5807 5806 5804 5802 5800 5797 5795 5793 5791 5788 5786 5784 5783 5781 5779 5777 5774 5771 5768 5765 5763 5760 5758 5756 5753 5751 5748 5746 5743 5741 5738 5735 5731 5729 5726 5722 5717 5712 5708 5706 5704 5701 5698 5694 5690 5685 5680 5676 5673 5673 5675 5677 5679 5682 5684 5687 5689 5691 5692 5694 5695 5696 5697 5699 5701 5704 5707 5710
5808 5807 5806 5805 5803 5801 5799 5798 5796 5794 5792 5789 5787 5785 5783 5780 5778 5776 5775 5774 5772 5770 5767 5764 5761 5759 5756 5754 5752 5750 5747 5745 5743 5741 5739 5736 5733 5730 5727 5725 5721 5716 5711 5707 5704 5702 5700 5697 5694 5691 5688 5684 5680 5676 5674 5672 5673 5675 5678 5681 5684 5686 5688 5689 5689 5689 5690 5691 5693 5695 5698 5701 5704 5707